| time (UTC) | temp F | wind direction | speed MPH | gust MPH | rain 1hr in | rain 24hr in | rain mn in | humidity % | barometer mb |
| 20260509234603 | 51 | 238 | 1.0 | 4.0 | 0.00 | 0.50 | 0.50 | 94 | 1007.9 |
| 20260509234101 | 51 | 333 | 3.0 | 6.0 | 0.00 | 0.50 | 0.50 | 94 | 1007.6 |
| 20260509233558 | 52 | 1 | 3.0 | 6.0 | 0.00 | 0.50 | 0.50 | 92 | 1007.6 |
| 20260509233055 | 52 | 140 | 2.0 | 7.0 | 0.00 | 0.50 | 0.50 | 92 | 1007.8 |
| 20260509232552 | 52 | 113 | 3.0 | 4.0 | 0.00 | 0.50 | 0.50 | 92 | 1007.6 |
| 20260509232049 | 52 | 313 | 0.0 | 3.0 | 0.00 | 0.50 | 0.50 | 92 | 1007.3 |
| 20260509231544 | 52 | 64 | 1.0 | 3.0 | 0.00 | 0.50 | 0.50 | 92 | 1007.2 |
| 20260509231043 | 52 | 43 | 4.0 | 6.0 | 0.00 | 0.50 | 0.50 | 91 | 1007.3 |
| 20260509230539 | 52 | 311 | 2.0 | 3.0 | 0.00 | 0.50 | 0.50 | 92 | 1007.5 |
| 20260509230037 | 52 | 265 | 1.0 | 3.0 | 0.00 | 0.50 | 0.50 | 91 | 1007.4 |
| 20260509225532 | 52 | 328 | 1.0 | 2.0 | 0.00 | 0.50 | 0.50 | 92 | 1007.3 |
| 20260509225027 | 52 | 193 | 2.0 | 3.0 | 0.00 | 0.50 | 0.50 | 93 | 1007.3 |
| 20260509224523 | 52 | 30 | 0.0 | 2.0 | 0.00 | 0.50 | 0.50 | 92 | 1007.5 |
| 20260509224020 | 52 | 348 | 2.0 | 6.0 | 0.00 | 0.50 | 0.50 | 92 | 1007.5 |
| 20260509223517 | 52 | 128 | 4.0 | 4.0 | 0.00 | 0.50 | 0.50 | 93 | 1007.5 |
| 20260509223015 | 52 | 29 | 1.0 | 2.0 | 0.00 | 0.50 | 0.50 | 93 | 1007.4 |
| 20260509222511 | 52 | 334 | 3.0 | 4.0 | 0.00 | 0.50 | 0.50 | 92 | 1007.6 |
| 20260509222006 | 52 | 12 | 2.0 | 7.0 | 0.00 | 0.50 | 0.50 | 92 | 1007.3 |
| 20260509221503 | 52 | 331 | 4.0 | 4.0 | 0.00 | 0.50 | 0.50 | 92 | 1007.5 |
| 20260509220958 | 53 | 230 | 3.0 | 4.0 | 0.00 | 0.50 | 0.50 | 92 | 1007.4 |
| 20260509220455 | 52 | 31 | 0.0 | 2.0 | 0.00 | 0.50 | 0.50 | 94 | 1007.4 |
| 20260509215951 | 51 | 124 | 4.0 | 7.0 | 0.00 | 0.50 | 0.50 | 94 | 1007.5 |
| 20260509215446 | 52 | 14 | 0.0 | 7.0 | 0.00 | 0.50 | 0.50 | 95 | 1007.6 |
| 20260509214944 | 52 | 97 | 3.0 | 6.0 | 0.00 | 0.50 | 0.50 | 94 | 1007.6 |
| 20260509214441 | 52 | 0 | 4.0 | 7.0 | 0.00 | 0.50 | 0.50 | 93 | 1007.6 |
| 20260509213937 | 52 | 25 | 1.0 | 3.0 | 0.00 | 0.50 | 0.50 | 95 | 1007.4 |
| 20260509213433 | 53 | 49 | 3.0 | 4.0 | 0.00 | 0.50 | 0.50 | 94 | 1007.5 |
| 20260509212931 | 52 | 123 | 2.0 | 4.0 | 0.00 | 0.50 | 0.50 | 96 | 1007.6 |
| 20260509212429 | 51 | 10 | 2.0 | 3.0 | 0.00 | 0.50 | 0.50 | 97 | 1008.0 |
| 20260509211925 | 51 | 126 | 0.0 | 1.0 | 0.00 | 0.50 | 0.50 | 98 | 1008.0 |
| 20260509211420 | 51 | 289 | 2.0 | 4.0 | 0.00 | 0.50 | 0.50 | 98 | 1007.9 |
| 20260509210917 | 51 | 27 | 0.0 | 4.0 | 0.00 | 0.50 | 0.50 | 98 | 1007.8 |
| 20260509210415 | 50 | 117 | 3.0 | 4.0 | 0.00 | 0.50 | 0.50 | 99 | 1008.0 |
| 20260509205910 | 50 | 359 | 2.0 | 7.0 | 0.00 | 0.50 | 0.50 | 99 | 1007.9 |
| 20260509205409 | 50 | 295 | 0.0 | 4.0 | 0.00 | 0.50 | 0.50 | 99 | 1007.9 |
| 20260509204906 | 50 | 111 | 0.0 | 3.0 | 0.00 | 0.50 | 0.50 | 99 | 1008.1 |
| 20260509204402 | 50 | 51 | 0.0 | 4.0 | 0.00 | 0.50 | 0.50 | 99 | 1008.0 |
| 20260509203859 | 50 | 323 | 2.0 | 4.0 | 0.00 | 0.50 | 0.50 | 98 | 1007.9 |
| 20260509203355 | 51 | 54 | 2.0 | 6.0 | 0.00 | 0.50 | 0.50 | 99 | 1007.9 |
| 20260509202853 | 50 | 325 | 0.0 | 8.0 | 0.00 | 0.50 | 0.50 | 99 | 1008.0 |
| 20260509202348 | 50 | 342 | 1.0 | 8.0 | 0.00 | 0.50 | 0.50 | 99 | 1007.9 |
| 20260509201843 | 50 | 268 | 3.0 | 6.0 | 0.00 | 0.50 | 0.50 | 99 | 1008.0 |
| 20260509201339 | 50 | 23 | 1.0 | 4.0 | 0.00 | 0.50 | 0.50 | 99 | 1007.9 |
| 20260509200836 | 49 | 23 | 4.0 | 7.0 | 0.00 | 0.50 | 0.50 | 99 | 1008.0 |
| 20260509200331 | 49 | 105 | 4.0 | 8.0 | 0.00 | 0.50 | 0.50 | 99 | 1008.2 |
| 20260509195828 | 49 | 342 | 2.0 | 4.0 | 0.00 | 0.50 | 0.50 | 99 | 1008.2 |
| 20260509195328 | 49 | 14 | 4.0 | 4.0 | 0.00 | 0.50 | 0.50 | 99 | 1008.3 |
| 20260509194828 | 49 | 95 | 1.0 | 4.0 | 0.00 | 0.50 | 0.50 | 99 | 1008.3 |
| 20260509194324 | 49 | 303 | 2.0 | 3.0 | 0.07 | 0.50 | 0.50 | 99 | 1008.3 |
| 20260509193821 | 49 | 43 | 0.0 | 4.0 | 0.07 | 0.50 | 0.50 | 99 | 1008.3 |
| 20260509193321 | 49 | 119 | 2.0 | 7.0 | 0.05 | 0.49 | 0.49 | 99 | 1008.4 |
| 20260509192817 | 49 | 25 | 3.0 | 6.0 | 0.00 | 0.48 | 0.48 | 99 | 1008.6 |
| 20260509192313 | 48 | 36 | 2.0 | 4.0 | 0.00 | 0.48 | 0.48 | 99 | 1008.5 |
| 20260509191808 | 48 | 32 | 0.0 | 6.0 | 0.07 | 0.48 | 0.48 | 99 | 1008.5 |
| 20260509191305 | 49 | 353 | 3.0 | 10.0 | 0.12 | 0.48 | 0.48 | 99 | 1008.6 |
| 20260509190800 | 49 | 262 | 1.0 | 4.0 | 0.05 | 0.47 | 0.47 | 99 | 1008.7 |
| 20260509190258 | 48 | 283 | 0.0 | 2.0 | 0.00 | 0.46 | 0.46 | 99 | 1008.5 |
| 20260509185755 | 48 | 318 | 4.0 | 11.0 | 0.00 | 0.46 | 0.46 | 99 | 1008.5 |
| 20260509185251 | 48 | 48 | 5.0 | 7.0 | 0.00 | 0.46 | 0.46 | 99 | 1008.6 |
| 20260509184749 | 48 | 303 | 0.0 | 4.0 | 0.00 | 0.46 | 0.46 | 99 | 1008.6 |
| 20260509184246 | 48 | 355 | 3.0 | 3.0 | 0.00 | 0.46 | 0.46 | 99 | 1008.5 |
| 20260509183742 | 48 | 282 | 3.0 | 6.0 | 0.00 | 0.46 | 0.46 | 99 | 1008.6 |
| 20260509183237 | 48 | 215 | 2.0 | 3.0 | 0.00 | 0.46 | 0.46 | 99 | 1008.6 |
| 20260509182733 | 48 | 271 | 1.0 | 4.0 | 0.07 | 0.46 | 0.46 | 99 | 1008.7 |
| 20260509182231 | 48 | 348 | 4.0 | 4.0 | 0.07 | 0.46 | 0.46 | 99 | 1008.6 |
| 20260509181729 | 48 | 269 | 2.0 | 6.0 | 0.00 | 0.45 | 0.45 | 99 | 1008.5 |
| 20260509181226 | 48 | 158 | 2.0 | 3.0 | 0.00 | 0.45 | 0.45 | 99 | 1008.5 |
| 20260509180723 | 48 | 316 | 3.0 | 11.0 | 0.05 | 0.45 | 0.45 | 99 | 1008.5 |
| 20260509180219 | 48 | 354 | 1.0 | 7.0 | 0.00 | 0.44 | 0.44 | 99 | 1008.6 |
| 20260509175715 | 48 | 128 | 1.0 | 8.0 | 0.00 | 0.44 | 0.44 | 99 | 1008.7 |
| 20260509175212 | 48 | 351 | 4.0 | 16.0 | 0.07 | 0.44 | 0.44 | 99 | 1008.3 |
| 20260509174707 | 48 | 318 | 2.0 | 13.0 | 0.07 | 0.44 | 0.44 | 99 | 1008.6 |
| 20260509174203 | 48 | 2 | 6.0 | 8.0 | 0.00 | 0.43 | 0.43 | 99 | 1008.3 |
| 20260509173659 | 48 | 283 | 1.0 | 6.0 | 0.00 | 0.43 | 0.43 | 99 | 1008.4 |
| 20260509173155 | 48 | 24 | 4.0 | 6.0 | 0.00 | 0.43 | 0.43 | 99 | 1008.4 |
| 20260509172651 | 48 | 321 | 3.0 | 8.0 | 0.05 | 0.43 | 0.43 | 99 | 1008.4 |
| 20260509172148 | 48 | 24 | 2.0 | 8.0 | 0.12 | 0.43 | 0.43 | 99 | 1008.5 |
| 20260509171643 | 48 | 356 | 4.0 | 7.0 | 0.12 | 0.42 | 0.42 | 99 | 1008.2 |
| 20260509171140 | 48 | 336 | 4.0 | 7.0 | 0.12 | 0.41 | 0.41 | 99 | 1008.5 |
| 20260509170637 | 48 | 299 | 1.0 | 6.0 | 0.14 | 0.40 | 0.40 | 99 | 1008.6 |
| 20260509170133 | 48 | 7 | 2.0 | 7.0 | 0.12 | 0.39 | 0.39 | 99 | 1008.5 |
| 20260509165631 | 48 | 41 | 3.0 | 4.0 | 0.12 | 0.38 | 0.38 | 99 | 1008.6 |
| 20260509165127 | 48 | 48 | 1.0 | 6.0 | 0.07 | 0.37 | 0.37 | 99 | 1008.7 |
| 20260509164623 | 48 | 131 | 1.0 | 3.0 | 0.05 | 0.36 | 0.36 | 99 | 1008.6 |
| 20260509164119 | 48 | 35 | 1.0 | 4.0 | 0.00 | 0.35 | 0.35 | 99 | 1008.4 |
| 20260509163617 | 48 | 349 | 1.0 | 2.0 | 0.00 | 0.35 | 0.35 | 99 | 1008.6 |
| 20260509163112 | 48 | 290 | 1.0 | 4.0 | 0.07 | 0.35 | 0.35 | 99 | 1008.6 |
| 20260509162610 | 48 | 58 | 2.0 | 7.0 | 0.07 | 0.35 | 0.35 | 99 | 1008.6 |
| 20260509162105 | 48 | 278 | 2.0 | 4.0 | 0.00 | 0.34 | 0.34 | 99 | 1008.8 |
| 20260509161602 | 48 | 57 | 4.0 | 6.0 | 0.00 | 0.34 | 0.34 | 99 | 1008.6 |
| 20260509161102 | 47 | 315 | 1.0 | 2.0 | 0.00 | 0.34 | 0.34 | 99 | 1008.8 |
| 20260509160558 | 47 | 59 | 2.0 | 7.0 | 0.05 | 0.34 | 0.34 | 99 | 1009.0 |
| 20260509160054 | 47 | 8 | 2.0 | 3.0 | 0.05 | 0.34 | 0.34 | 99 | 1008.9 |
| 20260509155551 | 47 | 36 | 2.0 | 4.0 | 0.00 | 0.33 | 0.33 | 99 | 1008.7 |
| 20260509155047 | 48 | 276 | 2.0 | 3.0 | 0.00 | 0.33 | 0.33 | 99 | 1008.7 |
| 20260509154543 | 47 | 133 | 0.0 | 1.0 | 0.07 | 0.33 | 0.33 | 99 | 1008.9 |
| 20260509154041 | 47 | 320 | 4.0 | 6.0 | 0.07 | 0.33 | 0.33 | 98 | 1008.7 |
| 20260509153537 | 47 | 267 | 1.0 | 6.0 | 0.05 | 0.32 | 0.32 | 99 | 1008.9 |
| 20260509153034 | 47 | 203 | 2.0 | 6.0 | 0.05 | 0.32 | 0.32 | 98 | 1008.8 |
| 20260509152530 | 47 | 342 | 3.0 | 8.0 | 0.00 | 0.31 | 0.31 | 98 | 1009.1 |
| 20260509152027 | 48 | 354 | 3.0 | 6.0 | 0.07 | 0.31 | 0.31 | 98 | 1009.0 |
| 20260509151523 | 48 | 346 | 0.0 | 3.0 | 0.00 | 0.30 | 0.30 | 99 | 1009.0 |
| 20260509151021 | 47 | 294 | 4.0 | 6.0 | 0.00 | 0.30 | 0.30 | 98 | 1009.1 |
| 20260509150518 | 47 | 309 | 4.0 | 6.0 | 0.00 | 0.30 | 0.30 | 98 | 1008.9 |
| 20260509150017 | 48 | 306 | 4.0 | 6.0 | 0.05 | 0.30 | 0.30 | 98 | 1008.9 |
| 20260509145512 | 47 | 321 | 2.0 | 4.0 | 0.05 | 0.30 | 0.30 | 98 | 1009.2 |
| 20260509145007 | 47 | 278 | 3.0 | 6.0 | 0.00 | 0.29 | 0.29 | 98 | 1009.1 |
| 20260509144505 | 47 | 338 | 3.0 | 6.0 | 0.07 | 0.29 | 0.29 | 98 | 1009.3 |
| 20260509144002 | 47 | 290 | 2.0 | 2.0 | 0.07 | 0.29 | 0.29 | 98 | 1009.3 |
| 20260509143458 | 47 | 15 | 3.0 | 8.0 | 0.00 | 0.28 | 0.28 | 98 | 1009.3 |
| 20260509142955 | 47 | 35 | 1.0 | 4.0 | 0.00 | 0.28 | 0.28 | 98 | 1009.2 |
| 20260509142452 | 47 | 352 | 4.0 | 7.0 | 0.07 | 0.28 | 0.28 | 98 | 1009.6 |
| 20260509141947 | 47 | 247 | 1.0 | 4.0 | 0.00 | 0.27 | 0.27 | 98 | 1009.3 |
| 20260509141444 | 47 | 328 | 2.0 | 4.0 | 0.05 | 0.27 | 0.27 | 98 | 1009.3 |
| 20260509140941 | 47 | 343 | 2.0 | 6.0 | 0.05 | 0.27 | 0.27 | 98 | 1009.2 |
| 20260509140437 | 47 | 320 | 2.0 | 6.0 | 0.00 | 0.26 | 0.26 | 98 | 1009.3 |
| 20260509135936 | 48 | 191 | 3.0 | 4.0 | 0.07 | 0.26 | 0.26 | 98 | 1009.6 |
| 20260509135433 | 47 | 54 | 6.0 | 10.0 | 0.07 | 0.26 | 0.26 | 98 | 1009.3 |
| 20260509134930 | 47 | 272 | 0.0 | 3.0 | 0.00 | 0.25 | 0.25 | 98 | 1009.5 |
| 20260509134427 | 47 | 285 | 2.0 | 4.0 | 0.00 | 0.25 | 0.25 | 97 | 1009.3 |
| 20260509133925 | 47 | 221 | 2.0 | 4.0 | 0.05 | 0.25 | 0.25 | 97 | 1009.3 |
| 20260509133421 | 47 | 52 | 3.0 | 7.0 | 0.05 | 0.25 | 0.25 | 97 | 1009.3 |
| 20260509132919 | 47 | 290 | 2.0 | 4.0 | 0.00 | 0.24 | 0.24 | 98 | 1009.3 |
| 20260509132417 | 47 | 289 | 4.0 | 4.0 | 0.00 | 0.24 | 0.24 | 98 | 1009.5 |
| 20260509131914 | 47 | 266 | 1.0 | 2.0 | 0.00 | 0.24 | 0.24 | 99 | 1009.5 |
| 20260509131411 | 47 | 295 | 1.0 | 1.0 | 0.00 | 0.24 | 0.24 | 99 | 1009.3 |
| 20260509130908 | 47 | 21 | 2.0 | 2.0 | 0.07 | 0.24 | 0.24 | 99 | 1009.3 |
| 20260509130403 | 47 | 328 | 1.0 | 2.0 | 0.07 | 0.24 | 0.24 | 99 | 1009.1 |
| 20260509125900 | 47 | 286 | 2.0 | 2.0 | 0.00 | 0.23 | 0.23 | 99 | 1009.2 |
| 20260509125356 | 47 | 254 | 0.0 | 2.0 | 0.00 | 0.23 | 0.23 | 99 | 1009.1 |
| 20260509124852 | 47 | 287 | 1.0 | 3.0 | 0.00 | 0.23 | 0.23 | 99 | 1009.1 |
| 20260509124350 | 47 | 317 | 1.0 | 2.0 | 0.00 | 0.23 | 0.23 | 99 | 1009.2 |
| 20260509123848 | 47 | 268 | 2.0 | 2.0 | 0.00 | 0.23 | 0.23 | 99 | 1009.0 |
| 20260509123345 | 46 | 284 | 1.0 | 2.0 | 0.00 | 0.23 | 0.23 | 99 | 1009.2 |
| 20260509122840 | 46 | 271 | 1.0 | 2.0 | 0.00 | 0.23 | 0.23 | 99 | 1009.3 |
| 20260509122337 | 46 | 256 | 1.0 | 2.0 | 0.05 | 0.23 | 0.23 | 99 | 1009.5 |
| 20260509121834 | 46 | 278 | 0.0 | 1.0 | 0.05 | 0.23 | 0.23 | 99 | 1009.6 |
| 20260509121331 | 46 | 293 | 1.0 | 1.0 | 0.00 | 0.22 | 0.22 | 99 | 1009.6 |
| 20260509120830 | 46 | 296 | 0.0 | 0.0 | 0.00 | 0.22 | 0.22 | 99 | 1009.7 |
| 20260509120327 | 46 | 287 | 1.0 | 2.0 | 0.00 | 0.22 | 0.22 | 99 | 1009.6 |
| 20260509115825 | 46 | 300 | 0.0 | 3.0 | 0.00 | 0.22 | 0.22 | 99 | 1009.5 |
| 20260509115322 | 45 | 283 | 1.0 | 2.0 | 0.00 | 0.22 | 0.22 | 99 | 1009.6 |
| 20260509114820 | 45 | 355 | 0.0 | 1.0 | 0.00 | 0.22 | 0.22 | 99 | 1009.3 |
| 20260509114318 | 45 | 294 | 2.0 | 2.0 | 0.00 | 0.22 | 0.22 | 99 | 1009.7 |
| 20260509113817 | 45 | 19 | 0.0 | 3.0 | 0.07 | 0.22 | 0.22 | 99 | 1009.5 |
| 20260509113313 | 45 | 299 | 2.0 | 6.0 | 0.07 | 0.22 | 0.22 | 99 | 1009.5 |
| 20260509112810 | 45 | 313 | 1.0 | 3.0 | 0.00 | 0.21 | 0.21 | 99 | 1009.5 |
| 20260509112308 | 45 | 278 | 3.0 | 4.0 | 0.00 | 0.21 | 0.21 | 99 | 1009.2 |
| 20260509111804 | 45 | 280 | 3.0 | 3.0 | 0.00 | 0.21 | 0.21 | 99 | 1009.6 |
| 20260509111301 | 45 | 274 | 2.0 | 2.0 | 0.00 | 0.21 | 0.21 | 99 | 1009.6 |
| 20260509110759 | 45 | 298 | 2.0 | 3.0 | 0.00 | 0.21 | 0.21 | 99 | 1009.6 |
| 20260509110255 | 45 | 280 | 1.0 | 2.0 | 0.00 | 0.21 | 0.21 | 99 | 1009.7 |
| 20260509105753 | 44 | 275 | 1.0 | 2.0 | 0.00 | 0.21 | 0.21 | 99 | 1009.6 |
| 20260509105251 | 44 | 276 | 2.0 | 2.0 | 0.00 | 0.21 | 0.21 | 99 | 1009.6 |
| 20260509104747 | 44 | 292 | 2.0 | 3.0 | 0.00 | 0.21 | 0.21 | 99 | 1009.6 |
| 20260509104244 | 44 | 272 | 1.0 | 2.0 | 0.00 | 0.21 | 0.21 | 99 | 1009.7 |
| 20260509103743 | 44 | 289 | 1.0 | 2.0 | 0.00 | 0.21 | 0.21 | 99 | 1009.7 |
| 20260509103239 | 44 | 273 | 2.0 | 3.0 | 0.00 | 0.21 | 0.21 | 99 | 1009.5 |
| 20260509102738 | 44 | 286 | 1.0 | 2.0 | 0.00 | 0.21 | 0.21 | 99 | 1009.7 |
| 20260509102234 | 44 | 273 | 2.0 | 2.0 | 0.00 | 0.21 | 0.21 | 99 | 1009.7 |
| 20260509101731 | 44 | 294 | 2.0 | 2.0 | 0.00 | 0.21 | 0.21 | 99 | 1009.6 |
| 20260509101227 | 44 | 298 | 1.0 | 2.0 | 0.00 | 0.21 | 0.21 | 99 | 1009.7 |
| 20260509100724 | 44 | 295 | 1.0 | 2.0 | 0.00 | 0.21 | 0.21 | 99 | 1009.7 |
| 20260509100222 | 44 | 301 | 2.0 | 3.0 | 0.00 | 0.21 | 0.21 | 99 | 1009.8 |
| 20260509095718 | 44 | 275 | 2.0 | 3.0 | 0.00 | 0.21 | 0.21 | 99 | 1009.7 |
| 20260509095216 | 44 | 297 | 3.0 | 3.0 | 0.00 | 0.21 | 0.21 | 99 | 1009.6 |
| 20260509094712 | 44 | 299 | 0.0 | 2.0 | 0.00 | 0.21 | 0.21 | 99 | 1009.7 |
| 20260509094209 | 44 | 289 | 0.0 | 2.0 | 0.00 | 0.21 | 0.21 | 99 | 1009.8 |
| 20260509093708 | 44 | 284 | 2.0 | 3.0 | 0.05 | 0.21 | 0.21 | 99 | 1009.7 |
| 20260509093204 | 44 | 284 | 1.0 | 3.0 | 0.12 | 0.21 | 0.21 | 99 | 1009.8 |
| 20260509092702 | 44 | 311 | 0.0 | 1.0 | 0.12 | 0.20 | 0.20 | 99 | 1009.8 |
| 20260509092200 | 44 | 291 | 1.0 | 1.0 | 0.05 | 0.19 | 0.19 | 99 | 1009.8 |
| 20260509091658 | 44 | 291 | 0.0 | 0.0 | 0.00 | 0.18 | 0.18 | 99 | 1009.8 |
| 20260509091154 | 44 | 339 | 0.0 | 1.0 | 0.07 | 0.18 | 0.18 | 99 | 1009.7 |
| 20260509090652 | 44 | 287 | 1.0 | 1.0 | 0.05 | 0.17 | 0.17 | 99 | 1010.0 |
| 20260509090149 | 44 | 296 | 1.0 | 2.0 | 0.05 | 0.17 | 0.17 | 99 | 1010.0 |
| 20260509085647 | 44 | 292 | 1.0 | 2.0 | 0.00 | 0.16 | 0.16 | 99 | 1009.6 |
| 20260509085142 | 44 | 253 | 1.0 | 2.0 | 0.00 | 0.16 | 0.16 | 99 | 1009.8 |
| 20260509084640 | 44 | 318 | 2.0 | 3.0 | 0.00 | 0.16 | 0.16 | 99 | 1009.5 |
| 20260509084137 | 44 | 339 | 1.0 | 2.0 | 0.00 | 0.16 | 0.16 | 99 | 1009.5 |
| 20260509083634 | 44 | 283 | 1.0 | 2.0 | 0.00 | 0.16 | 0.16 | 99 | 1009.7 |
| 20260509083130 | 44 | 306 | 0.0 | 1.0 | 0.00 | 0.16 | 0.16 | 99 | 1009.7 |
| 20260509082628 | 44 | 355 | 0.0 | 0.0 | 0.00 | 0.16 | 0.16 | 99 | 1009.7 |
| 20260509082125 | 44 | 310 | 0.0 | 0.0 | 0.00 | 0.16 | 0.16 | 99 | 1009.7 |
| 20260509081622 | 44 | 279 | 0.0 | 1.0 | 0.00 | 0.16 | 0.16 | 99 | 1009.8 |
| 20260509081119 | 44 | 280 | 1.0 | 1.0 | 0.00 | 0.16 | 0.16 | 99 | 1009.6 |
| 20260509080617 | 44 | 295 | 1.0 | 1.0 | 0.07 | 0.16 | 0.16 | 99 | 1009.8 |
| 20260509080114 | 44 | 263 | 0.0 | 0.0 | 0.00 | 0.15 | 0.15 | 99 | 1010.0 |
| 20260509075612 | 44 | 278 | 0.0 | 0.0 | 0.00 | 0.15 | 0.15 | 99 | 1010.2 |
| 20260509075110 | 44 | 299 | 0.0 | 0.0 | 0.00 | 0.15 | 0.15 | 99 | 1010.3 |
| 20260509074606 | 44 | 351 | 0.0 | 0.0 | 0.07 | 0.15 | 0.15 | 99 | 1010.4 |
| 20260509074103 | 44 | 271 | 0.0 | 0.0 | 0.07 | 0.15 | 0.15 | 99 | 1010.5 |
| 20260509073600 | 44 | 270 | 0.0 | 0.0 | 0.00 | 0.14 | 0.14 | 99 | 1010.4 |
| 20260509073056 | 44 | 294 | 0.0 | 1.0 | 0.00 | 0.14 | 0.14 | 99 | 1010.6 |
| 20260509072553 | 44 | 306 | 0.0 | 0.0 | 0.05 | 0.14 | 0.14 | 99 | 1010.5 |
| 20260509072049 | 44 | 44 | 0.0 | 1.0 | 0.05 | 0.14 | 0.14 | 99 | 1010.4 |
| 20260509071546 | 44 | 227 | 0.0 | 0.0 | 0.07 | 0.13 | 0.13 | 99 | 1010.3 |
| 20260509071044 | 44 | 227 | 0.0 | 0.0 | 0.12 | 0.13 | 0.13 | 99 | 1010.3 |
| 20260509070541 | 44 | 106 | 0.0 | 1.0 | 0.12 | 0.12 | 0.12 | 99 | 1010.7 |
| 20260509070037 | 44 | 137 | 0.0 | 1.0 | 0.07 | 0.11 | 0.11 | 99 | 1010.7 |
| 20260509065532 | 44 | 295 | 0.0 | 0.0 | 0.05 | 0.10 | 0.10 | 99 | 1010.5 |
| 20260509065029 | 44 | 294 | 0.0 | 0.0 | 0.12 | 0.10 | 0.10 | 99 | 1010.7 |
| 20260509064527 | 44 | 137 | 0.0 | 0.0 | 0.12 | 0.09 | 0.09 | 99 | 1010.5 |
| 20260509064025 | 44 | 131 | 0.0 | 0.0 | 0.05 | 0.08 | 0.08 | 99 | 1011.0 |
| 20260509063519 | 44 | 356 | 0.0 | 1.0 | 0.07 | 0.07 | 0.07 | 99 | 1010.8 |
| 20260509063017 | 44 | 60 | 1.0 | 1.0 | 0.07 | 0.07 | 0.07 | 99 | 1010.9 |
| 20260509062514 | 44 | 324 | 0.0 | 1.0 | 0.00 | 0.06 | 0.06 | 99 | 1010.8 |
| 20260509062012 | 44 | 316 | 1.0 | 1.0 | 0.05 | 0.06 | 0.06 | 99 | 1010.9 |
| 20260509061509 | 44 | 292 | 0.0 | 1.0 | 0.05 | 0.06 | 0.06 | 99 | 1010.9 |
| 20260509061006 | 45 | 289 | 0.0 | 1.0 | 0.07 | 0.05 | 0.05 | 99 | 1011.0 |
| 20260509060503 | 45 | 285 | 0.0 | 1.0 | 0.07 | 0.05 | 0.05 | 99 | 1010.9 |
| 20260509055959 | 45 | 263 | 2.0 | 3.0 | 0.05 | 0.04 | 0.04 | 99 | 1010.8 |
| 20260509055454 | 45 | 74 | 0.0 | 0.0 | 0.07 | 0.03 | 0.03 | 99 | 1010.9 |
| 20260509054951 | 45 | 63 | 0.0 | 1.0 | 0.07 | 0.03 | 0.03 | 99 | 1011.0 |
| 20260509054447 | 45 | 302 | 1.0 | 2.0 | 0.00 | 0.02 | 0.02 | 99 | 1011.0 |
| 20260509053946 | 45 | 75 | 0.0 | 1.0 | 0.07 | 0.02 | 0.02 | 98 | 1011.0 |
| 20260509053444 | 45 | 80 | 0.0 | 1.0 | 0.07 | 0.02 | 0.02 | 98 | 1011.3 |
| 20260509052941 | 45 | 58 | 0.0 | 1.0 | 0.00 | 0.01 | 0.01 | 98 | 1011.3 |
| 20260509052438 | 45 | 71 | 2.0 | 4.0 | 0.00 | 0.01 | 0.01 | 98 | 1011.2 |
| 20260509051936 | 45 | 31 | 0.0 | 2.0 | 0.00 | 0.01 | 0.01 | 98 | 1011.2 |
| 20260509051433 | 45 | 57 | 2.0 | 2.0 | 0.00 | 0.01 | 0.01 | 97 | 1010.8 |
| 20260509050930 | 45 | 122 | 1.0 | 2.0 | 0.00 | 0.01 | 0.01 | 97 | 1010.9 |
| 20260509050427 | 45 | 76 | 2.0 | 6.0 | 0.05 | 0.01 | 0.01 | 96 | 1010.8 |
| 20260509045924 | 45 | 87 | 4.0 | 6.0 | 0.00 | 0.00 | 0.00 | 97 | 1010.9 |
| 20260509045421 | 45 | 32 | 0.0 | 1.0 | 0.00 | 0.00 | 0.00 | 98 | 1010.6 |
| 20260509044917 | 45 | 213 | 0.0 | 1.0 | 0.00 | 0.00 | 0.00 | 98 | 1010.6 |
| 20260509044416 | 45 | 87 | 0.0 | 0.0 | 0.00 | 0.00 | 0.00 | 98 | 1010.7 |
| 20260509043912 | 45 | 87 | 0.0 | 0.0 | 0.00 | 0.00 | 0.00 | 98 | 1010.8 |
| 20260509043408 | 45 | 261 | 0.0 | 0.0 | 0.00 | 0.00 | 0.00 | 97 | 1010.7 |
| 20260509042904 | 45 | 36 | 0.0 | 0.0 | 0.00 | 0.00 | 0.00 | 97 | 1010.6 |
| 20260509042401 | 45 | 337 | 0.0 | 0.0 | 0.00 | 0.00 | 0.00 | 97 | 1010.9 |
| 20260509041857 | 45 | 272 | 0.0 | 2.0 | 0.00 | 0.00 | 0.00 | 96 | 1010.9 |
| 20260509041354 | 46 | 96 | 1.0 | 6.0 | 0.00 | 0.00 | 0.00 | 96 | 1011.0 |
| 20260509040852 | 46 | 79 | 2.0 | 4.0 | 0.00 | 0.00 | 0.00 | 96 | 1010.7 |
| 20260509040350 | 46 | 85 | 1.0 | 4.0 | 0.00 | 0.00 | 0.00 | 96 | 1010.8 |
| 20260509035847 | 46 | 76 | 3.0 | 7.0 | 0.07 | 0.13 | 0.13 | 96 | 1011.3 |
| 20260509035344 | 46 | 94 | 2.0 | 4.0 | 0.07 | 0.13 | 0.13 | 96 | 1011.3 |
| 20260509034840 | 46 | 100 | 4.0 | 6.0 | 0.00 | 0.12 | 0.12 | 96 | 1011.4 |
| 20260509034338 | 46 | 80 | 1.0 | 7.0 | 0.00 | 0.12 | 0.12 | 95 | 1011.4 |
| 20260509033834 | 46 | 75 | 0.0 | 4.0 | 0.00 | 0.12 | 0.12 | 94 | 1011.4 |
| 20260509033332 | 46 | 45 | 0.0 | 4.0 | 0.00 | 0.12 | 0.12 | 94 | 1011.4 |
| 20260509032828 | 46 | 143 | 0.0 | 2.0 | 0.00 | 0.12 | 0.12 | 94 | 1011.3 |
| 20260509032326 | 46 | 355 | 3.0 | 6.0 | 0.00 | 0.12 | 0.12 | 94 | 1011.3 |
| 20260509031824 | 45 | 173 | 1.0 | 2.0 | 0.00 | 0.12 | 0.12 | 94 | 1011.4 |
| 20260509031320 | 45 | 42 | 1.0 | 2.0 | 0.00 | 0.12 | 0.12 | 94 | 1011.0 |
| 20260509030818 | 45 | 81 | 0.0 | 2.0 | 0.00 | 0.12 | 0.12 | 94 | 1011.2 |
| 20260509030316 | 45 | 78 | 1.0 | 3.0 | 0.00 | 0.12 | 0.12 | 94 | 1011.2 |
| 20260509025812 | 45 | 79 | 0.0 | 4.0 | 0.00 | 0.12 | 0.12 | 94 | 1011.0 |
| 20260509025308 | 45 | 250 | 1.0 | 2.0 | 0.00 | 0.12 | 0.12 | 94 | 1011.2 |
| 20260509024804 | 45 | 241 | 1.0 | 6.0 | 0.00 | 0.12 | 0.12 | 94 | 1011.2 |
| 20260509024300 | 45 | 213 | 2.0 | 3.0 | 0.00 | 0.12 | 0.12 | 95 | 1011.3 |
| 20260509023757 | 45 | 63 | 0.0 | 1.0 | 0.00 | 0.12 | 0.12 | 95 | 1011.5 |
| 20260509023254 | 45 | 3 | 0.0 | 2.0 | 0.00 | 0.12 | 0.12 | 95 | 1011.3 |
| 20260509022750 | 44 | 106 | 0.0 | 3.0 | 0.00 | 0.12 | 0.12 | 96 | 1011.2 |
| 20260509022248 | 44 | 273 | 1.0 | 1.0 | 0.00 | 0.12 | 0.12 | 96 | 1011.0 |
| 20260509021745 | 44 | 7 | 0.0 | 3.0 | 0.00 | 0.12 | 0.12 | 96 | 1011.2 |
| 20260509021242 | 44 | 328 | 0.0 | 1.0 | 0.00 | 0.12 | 0.12 | 95 | 1011.2 |
| 20260509020740 | 44 | 340 | 0.0 | 1.0 | 0.00 | 0.12 | 0.12 | 95 | 1011.3 |
| 20260509020237 | 45 | 357 | 0.0 | 1.0 | 0.00 | 0.12 | 0.12 | 94 | 1011.2 |
| 20260509015735 | 45 | 266 | 0.0 | 1.0 | 0.00 | 0.12 | 0.12 | 94 | 1011.0 |
| 20260509015233 | 45 | 240 | 0.0 | 1.0 | 0.00 | 0.12 | 0.12 | 93 | 1011.0 |
| 20260509014729 | 45 | 155 | 0.0 | 2.0 | 0.00 | 0.12 | 0.12 | 93 | 1011.0 |
| 20260509014226 | 46 | 323 | 0.0 | 2.0 | 0.00 | 0.12 | 0.12 | 92 | 1011.0 |
| 20260509013723 | 46 | 32 | 0.0 | 1.0 | 0.00 | 0.12 | 0.12 | 92 | 1010.9 |
| 20260509013218 | 46 | 66 | 0.0 | 3.0 | 0.00 | 0.12 | 0.12 | 91 | 1011.2 |
| 20260509012715 | 46 | 64 | 0.0 | 6.0 | 0.00 | 0.12 | 0.12 | 91 | 1011.0 |
| 20260509012212 | 46 | 135 | 1.0 | 1.0 | 0.00 | 0.12 | 0.12 | 91 | 1010.8 |
| 20260509011710 | 46 | 214 | 0.0 | 1.0 | 0.00 | 0.12 | 0.12 | 91 | 1010.8 |
| 20260509011207 | 46 | 28 | 0.0 | 1.0 | 0.00 | 0.12 | 0.12 | 91 | 1010.7 |
| 20260509010705 | 46 | 103 | 1.0 | 1.0 | 0.00 | 0.12 | 0.12 | 91 | 1010.7 |
| 20260509010200 | 46 | 289 | 0.0 | 2.0 | 0.00 | 0.12 | 0.12 | 92 | 1010.5 |
| 20260509005658 | 46 | 291 | 2.0 | 4.0 | 0.00 | 0.12 | 0.12 | 92 | 1010.5 |
| 20260509005155 | 46 | 295 | 2.0 | 2.0 | 0.00 | 0.12 | 0.12 | 93 | 1010.7 |
| 20260509004650 | 46 | 203 | 0.0 | 0.0 | 0.00 | 0.12 | 0.12 | 93 | 1010.5 |
| 20260509004148 | 46 | 44 | 0.0 | 0.0 | 0.00 | 0.12 | 0.12 | 93 | 1010.6 |
| 20260509003646 | 46 | 348 | 1.0 | 2.0 | 0.00 | 0.12 | 0.12 | 92 | 1010.3 |
| 20260509003143 | 46 | 47 | 0.0 | 0.0 | 0.00 | 0.12 | 0.12 | 92 | 1010.4 |
| 20260509002640 | 46 | 330 | 2.0 | 3.0 | 0.00 | 0.12 | 0.12 | 92 | 1010.5 |
| 20260509002137 | 46 | 24 | 0.0 | 2.0 | 0.00 | 0.12 | 0.12 | 92 | 1010.4 |
| 20260509001635 | 46 | 359 | 1.0 | 2.0 | 0.00 | 0.12 | 0.12 | 92 | 1010.3 |
| 20260509001131 | 46 | 288 | 0.0 | 1.0 | 0.00 | 0.12 | 0.12 | 91 | 1010.4 |
| 20260509000629 | 46 | 16 | 0.0 | 3.0 | 0.00 | 0.12 | 0.12 | 91 | 1010.3 |
| 20260509000125 | 47 | 52 | 0.0 | 6.0 | 0.00 | 0.12 | 0.12 | 91 | 1010.2 |
| 20260508235623 | 47 | 18 | 1.0 | 2.0 | 0.00 | 0.12 | 0.12 | 89 | 1010.0 |
| 20260508235119 | 47 | 29 | 0.0 | 2.0 | 0.00 | 0.12 | 0.12 | 88 | 1009.9 |